{"data":{"norad_id":87071,"intl_designator":"","name":"UNKNOWN","alt_names":[],"object_type":"UNKNOWN","status":"UNKNOWN","operator":null,"country":null,"launch_date":null,"launch_site_code":null,"launch_vehicle":null,"mission":null,"orbit_class":"UNKNOWN","rcs_meters":null,"size_class":null,"mass_kg":null,"dimensions":null,"purposes":[],"wikipedia_slug":null,"has_3d_model":false,"image_url":null,"decayed_at":null,"tle_current":{"epoch":"2026-09-18T02:48:30.728448Z","epoch_age_seconds":220428,"freshness":"STALE","line1":"1 87071U          26261.11702232  .00004353  00000+0  14768-2 0  9990","line2":"2 87071  61.2160 159.8177 0483241  16.7360 344.9000 13.87780305641232","mean_motion":13.87780305,"eccentricity":0.0483241,"inclination_deg":61.216,"raan_deg":159.8177,"arg_perigee_deg":16.736,"mean_anomaly_deg":344.9,"bstar":0.0014768,"rev_number":64123,"period_min":103.76282145033,"perigee_km":582.95060869632,"apogee_km":1289.8893757942,"semimajor_km":7314.5569922453,"source":"CELESTRAK","updated_at":"2026-09-20T09:00:32.450115Z"}}}